| time (UTC) | temp C | wind direction | speed KPH | gust KPH | rain 1hr cm | rain 24hr cm | rain mn cm | humidity % | barometer mb |
| 20260507001556 | 25 | 120 | 9.7 | 14.5 | 0.00 | 0.00 | 0.00 | 88 | 1009.1 |
| 20260507000053 | 26 | 100 | 8.0 | 16.1 | 0.00 | 0.00 | 0.00 | 88 | 1009.0 |
| 20260506234558 | 26 | 119 | 6.4 | 16.1 | 0.00 | 0.00 | 0.00 | 88 | 1009.0 |
| 20260506233046 | 26 | 132 | 8.0 | 12.9 | 0.00 | 0.00 | 0.00 | 88 | 1008.9 |
| 20260506231539 | 26 | 128 | 6.4 | 12.9 | 0.00 | 0.00 | 0.00 | 89 | 1009.0 |
| 20260506230038 | 26 | 116 | 4.8 | 9.7 | 0.00 | 0.00 | 0.00 | 89 | 1008.8 |
| 20260506224538 | 26 | 117 | 4.8 | 11.3 | 0.00 | 0.00 | 0.00 | 89 | 1008.6 |
| 20260506223038 | 26 | 109 | 3.2 | 9.7 | 0.00 | 0.00 | 0.00 | 88 | 1008.6 |
| 20260506221550 | 26 | 123 | 1.6 | 12.9 | 0.00 | 0.00 | 0.00 | 88 | 1008.5 |
| 20260506220043 | 26 | 153 | 9.7 | 14.5 | 0.00 | 0.00 | 0.00 | 88 | 1008.5 |
| 20260506214536 | 26 | 108 | 8.0 | 16.1 | 0.00 | 0.00 | 0.00 | 88 | 1008.4 |
| 20260506213043 | 26 | 127 | 12.9 | 22.5 | 0.00 | 0.00 | 0.00 | 87 | 1008.5 |
| 20260506211543 | 26 | 137 | 11.3 | 20.9 | 0.00 | 0.00 | 0.00 | 87 | 1008.6 |
| 20260506210043 | 26 | 132 | 16.1 | 22.5 | 0.00 | 0.00 | 0.00 | 88 | 1008.8 |
| 20260506204535 | 26 | 137 | 11.3 | 19.3 | 0.00 | 0.00 | 0.00 | 88 | 1009.1 |
| 20260506203034 | 26 | 95 | 12.9 | 19.3 | 0.00 | 0.00 | 0.00 | 88 | 1009.3 |
| 20260506201537 | 26 | 127 | 8.0 | 20.9 | 0.00 | 0.00 | 0.00 | 88 | 1009.4 |
| 20260506200033 | 26 | 132 | 9.7 | 20.9 | 0.00 | 0.00 | 0.00 | 87 | 1009.5 |
| 20260506194532 | 26 | 82 | 9.7 | 16.1 | 0.00 | 0.00 | 0.00 | 87 | 1009.7 |
| 20260506193044 | 26 | 132 | 6.4 | 16.1 | 0.00 | 0.00 | 0.00 | 88 | 1009.8 |
| 20260506191531 | 26 | 104 | 11.3 | 16.1 | 0.00 | 0.00 | 0.00 | 88 | 1009.9 |
| 20260506190030 | 26 | 130 | 11.3 | 17.7 | 0.00 | 0.00 | 0.00 | 87 | 1010.0 |
| 20260506184530 | 26 | 132 | 11.3 | 16.1 | 0.00 | 0.00 | 0.00 | 89 | 1010.1 |
| 20260506183025 | 25 | 144 | 9.7 | 19.3 | 0.00 | 0.00 | 0.00 | 90 | 1009.9 |
| 20260506181536 | 25 | 121 | 9.7 | 19.3 | 0.00 | 0.00 | 0.00 | 90 | 1010.3 |
| 20260506180025 | 25 | 152 | 12.9 | 19.3 | 0.00 | 0.00 | 0.00 | 90 | 1010.6 |
| 20260506174523 | 25 | 149 | 14.5 | 24.1 | 0.00 | 0.00 | 0.00 | 89 | 1010.9 |
| 20260506173040 | 25 | 154 | 16.1 | 24.1 | 0.00 | 0.00 | 0.00 | 89 | 1010.8 |
| 20260506171521 | 25 | 139 | 9.7 | 17.7 | 0.00 | 0.00 | 0.00 | 90 | 1010.7 |
| 20260506170021 | 25 | 117 | 9.7 | 17.7 | 0.00 | 0.00 | 0.00 | 90 | 1010.7 |
| 20260506164519 | 25 | 148 | 12.9 | 22.5 | 0.00 | 0.00 | 0.00 | 89 | 1010.6 |
| 20260506163024 | 25 | 150 | 12.9 | 22.5 | 0.00 | 0.00 | 0.00 | 89 | 1010.5 |
| 20260506161517 | 25 | 146 | 9.7 | 17.7 | 0.00 | 0.00 | 0.00 | 89 | 1010.4 |
| 20260506160016 | 25 | 171 | 11.3 | 20.9 | 0.00 | 0.00 | 0.00 | 90 | 1010.0 |
| 20260506154513 | 25 | 128 | 14.5 | 25.7 | 0.00 | 0.00 | 0.00 | 90 | 1009.9 |
| 20260506153017 | 25 | 165 | 14.5 | 27.4 | 0.00 | 0.00 | 0.00 | 90 | 1009.8 |
| 20260506151511 | 25 | 150 | 14.5 | 20.9 | 0.00 | 0.00 | 0.00 | 90 | 1009.7 |
| 20260506150015 | 25 | 157 | 14.5 | 22.5 | 0.00 | 0.00 | 0.00 | 90 | 1009.5 |
| 20260506144509 | 25 | 148 | 17.7 | 24.1 | 0.00 | 0.00 | 0.00 | 90 | 1009.3 |
| 20260506143014 | 25 | 146 | 14.5 | 25.7 | 0.00 | 0.00 | 0.00 | 90 | 1009.5 |
| 20260506141508 | 25 | 143 | 12.9 | 25.7 | 0.00 | 0.00 | 0.00 | 90 | 1009.6 |
| 20260506140013 | 25 | 132 | 12.9 | 22.5 | 0.00 | 0.00 | 0.00 | 90 | 1009.4 |
| 20260506134505 | 25 | 158 | 12.9 | 22.5 | 0.00 | 0.00 | 0.00 | 90 | 1009.3 |
| 20260506133005 | 25 | 140 | 14.5 | 24.1 | 0.00 | 0.00 | 0.00 | 90 | 1009.3 |
| 20260506131508 | 25 | 134 | 11.3 | 19.3 | 0.00 | 0.00 | 0.00 | 90 | 1009.3 |
| 20260506130005 | 25 | 140 | 9.7 | 17.7 | 0.00 | 0.00 | 0.00 | 90 | 1009.2 |
| 20260506124504 | 25 | 138 | 4.8 | 14.5 | 0.00 | 0.00 | 0.00 | 90 | 1009.3 |
| 20260506123003 | 25 | 144 | 6.4 | 14.5 | 0.00 | 0.00 | 0.00 | 90 | 1009.1 |
| 20260506121502 | 25 | 144 | 6.4 | 16.1 | 0.00 | 0.00 | 0.00 | 90 | 1009.1 |
| 20260506120002 | 25 | 137 | 8.0 | 14.5 | 0.00 | 0.00 | 0.00 | 90 | 1009.0 |
| 20260506114502 | 25 | 144 | 8.0 | 14.5 | 0.00 | 0.00 | 0.00 | 90 | 1008.9 |
| 20260506113001 | 25 | 133 | 8.0 | 16.1 | 0.00 | 0.00 | 0.00 | 90 | 1008.8 |
| 20260506111501 | 25 | 129 | 6.4 | 16.1 | 0.00 | 0.00 | 0.00 | 90 | 1008.8 |
| 20260506110001 | 25 | 142 | 9.7 | 19.3 | 0.00 | 0.00 | 0.00 | 90 | 1008.8 |
| 20260506104636 | 25 | 166 | 9.7 | 16.1 | 0.00 | 0.00 | 0.00 | 90 | 1008.8 |
| 20260506103108 | 25 | 157 | 11.3 | 17.7 | 0.00 | 0.00 | 0.00 | 90 | 1008.8 |
| 20260506101559 | 25 | 159 | 11.3 | 17.7 | 0.00 | 0.00 | 0.00 | 90 | 1008.8 |
| 20260506100058 | 25 | 171 | 12.9 | 20.9 | 0.00 | 0.00 | 0.00 | 91 | 1008.7 |
| 20260506094558 | 24 | 139 | 12.9 | 24.1 | 0.00 | 0.00 | 0.00 | 91 | 1008.5 |
| 20260506093057 | 25 | 133 | 11.3 | 22.5 | 0.00 | 0.00 | 0.00 | 91 | 1008.2 |
| 20260506091559 | 25 | 168 | 14.5 | 19.3 | 0.00 | 0.00 | 0.00 | 90 | 1008.2 |
| 20260506090057 | 25 | 132 | 12.9 | 22.5 | 0.00 | 0.00 | 0.00 | 90 | 1008.1 |
| 20260506084555 | 24 | 144 | 12.9 | 24.1 | 0.00 | 0.00 | 0.00 | 90 | 1008.0 |
| 20260506083055 | 24 | 161 | 14.5 | 20.9 | 0.00 | 0.00 | 0.00 | 90 | 1008.2 |
| 20260506081559 | 24 | 152 | 11.3 | 19.3 | 0.00 | 0.00 | 0.00 | 90 | 1008.3 |
| 20260506080106 | 24 | 165 | 16.1 | 25.7 | 0.00 | 0.00 | 0.00 | 90 | 1008.3 |
| 20260506073050 | 24 | 156 | 14.5 | 24.1 | 0.00 | 0.00 | 0.00 | 90 | 1009.0 |
| 20260506071547 | 25 | 144 | 12.9 | 22.5 | 0.00 | 0.00 | 0.00 | 90 | 1009.2 |
| 20260506061545 | 25 | 164 | 16.1 | 32.2 | 0.00 | 0.00 | 0.00 | 90 | 1009.3 |
| 20260506044538 | 25 | 159 | 24.1 | 33.8 | 0.00 | 0.00 | 0.00 | 89 | 1009.3 |
| 20260506043047 | 25 | 155 | 20.9 | 30.6 | 0.00 | 0.00 | 0.00 | 89 | 1009.4 |
| 20260506041538 | 25 | 159 | 24.1 | 33.8 | 0.00 | 0.00 | 0.00 | 89 | 1009.4 |
| 20260506040045 | 25 | 169 | 24.1 | 37.0 | 0.00 | 0.00 | 0.00 | 89 | 1009.5 |
| 20260506034537 | 25 | 166 | 22.5 | 32.2 | 0.00 | 0.00 | 0.00 | 89 | 1009.2 |
| 20260506033035 | 25 | 153 | 24.1 | 32.2 | 0.00 | 0.00 | 0.00 | 89 | 1009.2 |
| 20260506031536 | 25 | 162 | 24.1 | 35.4 | 0.00 | 0.00 | 0.00 | 89 | 1009.0 |
| 20260506030034 | 25 | 168 | 24.1 | 30.6 | 0.00 | 0.00 | 0.00 | 89 | 1008.7 |
| 20260506024542 | 25 | 148 | 17.7 | 35.4 | 0.00 | 0.00 | 0.00 | 88 | 1008.5 |
| 20260506023033 | 25 | 168 | 24.1 | 33.8 | 0.00 | 0.00 | 0.00 | 89 | 1008.4 |
| 20260506021549 | 25 | 172 | 24.1 | 35.4 | 0.00 | 0.00 | 0.00 | 89 | 1008.2 |
| 20260506020032 | 25 | 161 | 22.5 | 33.8 | 0.00 | 0.00 | 0.00 | 89 | 1008.1 |
| 20260506014532 | 25 | 164 | 22.5 | 29.0 | 0.00 | 0.00 | 0.00 | 89 | 1007.9 |
| 20260506013031 | 25 | 142 | 22.5 | 35.4 | 0.00 | 0.00 | 0.00 | 88 | 1007.7 |
| 20260506011532 | 25 | 140 | 22.5 | 32.2 | 0.00 | 0.00 | 0.00 | 88 | 1007.6 |
| 20260506010043 | 25 | 139 | 20.9 | 32.2 | 0.00 | 0.00 | 0.00 | 88 | 1007.5 |
| 20260506004530 | 25 | 168 | 22.5 | 33.8 | 0.00 | 0.00 | 0.00 | 88 | 1007.3 |
| 20260506003030 | 25 | 158 | 19.3 | 29.0 | 0.00 | 0.00 | 0.00 | 88 | 1007.2 |